Regional Weather Roundup
Issued by NWS

Home | Current Version | Previous Version | Graphics & Text | Print | Product List | Glossary On
Versions: 1 2 3 4 5 6 7 8 9 10 11 12 13 14 15 16 17 18 19 20 21 22 23 24 25 26 27 28 29 30 31 32 33 34 35 36 37 38 39 40 41 42 43 44 45 46 47 48 49 50
000
ASUS43 KBIS 221802
RWRND

NORTH DAKOTA REGIONAL WEATHER ROUNDUP
NATIONAL WEATHER SERVICE BISMARCK ND
100 PM CDT WED MAR 22 2017

NOTE: "FAIR" INDICATES FEW OR NO CLOUDS BELOW 12,000 FEET WITH NO
SIGNIFICANT WEATHER AND/OR OBSTRUCTIONS TO VISIBILITY.


NDZ001>003-009>011-017-221900-
NORTHWEST NORTH DAKOTA

CITY           SKY/WX    TMP DP  RH WIND       PRES   REMARKS
WILLISTON      FAIR      40  28  62 SE15G21   29.87F
6HR MIN TEMP:  30; 6HR MAX TEMP:  40;

MINOT          CLOUDY    35  25  66 SE20G26   29.99F
MINOT AFB      CLOUDY    32  25  74 S20       29.99F
$$

NDZ018>021-031>035-040>046-221900-
SOUTHWEST NORTH DAKOTA

CITY           SKY/WX    TMP DP  RH WIND       PRES   REMARKS
BISMARCK       CLOUDY    39  26  59 S21       30.03F
6HR MIN TEMP:  26; 6HR MAX TEMP:  39;

DICKINSON      PTSUNNY   41  30  65 S18G26    29.87F
GARRISON         N/A     33  26  75 S23G30    29.97F
6HR MIN TEMP:  22; 6HR MAX TEMP:  33;

HETTINGER ARPT CLOUDY    46  32  58 S18G26    29.88F
$$

NDZ004>008-012>016-024-026-027-054-221900-
NORTHEAST NORTH DAKOTA

CITY           SKY/WX    TMP DP  RH WIND       PRES   REMARKS
GRAND FORKS    CLOUDY    30   6  36 S26G35    30.30F WCI  16
GRND FRKS AFB  CLOUDY    29  12  48 S24G32    30.28F WCI  15
DEVILS LAKE    CLOUDY    27  18  69 SE20G30   30.16F WCI  13
$$

NDZ022-023-025-028>030-036>039-047>053-221900-
SOUTHEAST NORTH DAKOTA

CITY           SKY/WX    TMP DP  RH WIND       PRES   REMARKS
FARGO          CLOUDY    31  12  45 S23G33    30.34F WCI  18
6HR MIN TEMP:  20; 6HR MAX TEMP:  31;

JAMESTOWN      FLURRIES  28  21  75 SE21G29   30.17S WCI  15
$$




USA.gov is the U.S. government's official web portal to all federal, state and local government web resources and services.